Weather History for KFWN - December, 2012

Change the Weather History Date:

Friday, December 28, 2012

  Actual Average Record
Temperature  
Mean Temperature 28 °F -  
Max Temperature 34 °F 33 °F 61 °F (2008)
Min Temperature 21 °F 15 °F -13 °F (1950)
Degree Days  
Heating Degree Days 38    
Moisture  
Dew Point 20 °F    
Average Humidity 68    
Maximum Humidity 88    
Minimum Humidity 59    
Precipitation  
Precipitation 0.00 in - - ()
Sea Level Pressure  
Sea Level Pressure 30.02 in    
Wind  
Wind Speed 6 mph (NW)    
Max Wind Speed 13 mph    
Max Gust Speed 29 mph    
Visibility 10 miles    
Events      
Averages and records for this station are not official NWS values.
T = Trace of Precipitation, MM = Missing Value Source: NWS Daily Summary

Daily Weather History Graph

Daily Weather History Graph

Search for Another Location

Airport or City:

Trip Planner

Search our weather history database for the weather conditions in past years. The results will help you decide how hot, cold, wet, or windy it might be!

Date:

Astronomy

Dec. 28, 2012 Rise Set
Actual Time 7:23 AM EST 4:37 PM EST
Civil Twilight 6:52 AM EST 5:08 PM EST
Nautical Twilight 6:17 AM EST 5:43 PM EST
Astronomical Twilight 5:43 AM EST 6:16 PM EST
Moon 5:12 PM EST (12/28) 7:15 AM EST (12/28)
Length of Visible Light 10h 16m
Length of Day
9h 13m
Full, 100% of the Moon is Illuminated
Dec 28
Full
Jan 4
Last Quarter
Jan 11
New
Jan 18
First Quarter
Jan 26
Full

Hourly Weather History & Observations

Time (EST) Temp. Windchill Dew Point Humidity Pressure Visibility Wind Dir Wind Speed Gust Speed Precip Events Conditions
12:53 AM 28.0 °F 17.5 °F 17.1 °F 63% 29.85 in 10.0 mi NW 12.7 mph 28.8 mph N/A   Clear
1:53 AM 28.9 °F 25.2 °F 17.1 °F 61% 29.88 in 10.0 mi Variable 3.5 mph 25.3 mph N/A   Clear
2:33 AM 28.4 °F 19.7 °F 17.6 °F 64% 29.89 in 10.0 mi NNW 9.2 mph 23.0 mph N/A   Mostly Cloudy
2:53 AM 28.9 °F - 18.0 °F 64% 29.92 in 10.0 mi Calm Calm - N/A   Overcast
3:53 AM 28.9 °F 25.2 °F 19.0 °F 67% 29.94 in 10.0 mi Variable 3.5 mph - N/A   Overcast
4:53 AM 28.9 °F 23.9 °F 19.0 °F 67% 29.96 in 10.0 mi WNW 4.6 mph - N/A   Overcast
5:53 AM 28.9 °F 20.4 °F 19.0 °F 67% 29.99 in 10.0 mi North 9.2 mph - N/A   Overcast
6:53 AM 28.9 °F 22.8 °F 19.9 °F 69% 30.01 in 10.0 mi Variable 5.8 mph - N/A   Overcast
7:53 AM 28.9 °F 21.9 °F 19.9 °F 69% 30.03 in 10.0 mi North 6.9 mph - N/A   Overcast
8:53 AM 28.9 °F 25.2 °F 19.0 °F 67% 30.05 in 10.0 mi Variable 3.5 mph - N/A   Overcast
9:53 AM 30.9 °F 24.3 °F 19.9 °F 64% 30.07 in 10.0 mi NW 6.9 mph - N/A   Overcast
10:53 AM 30.9 °F 25.2 °F 21.0 °F 67% 30.07 in 10.0 mi Variable 5.8 mph - N/A   Overcast
11:53 AM 30.9 °F 22.8 °F 21.0 °F 67% 30.06 in 10.0 mi NNW 9.2 mph - N/A   Overcast
12:53 PM 32.0 °F 28.7 °F 21.0 °F 64% 30.04 in 10.0 mi Variable 3.5 mph - N/A   Overcast
1:53 PM 32.0 °F 26.4 °F 21.0 °F 64% 30.04 in 10.0 mi WNW 5.8 mph - N/A   Overcast
2:53 PM 34.0 °F 28.0 °F 21.0 °F 59% 30.05 in 10.0 mi NNW 6.9 mph - N/A   Mostly Cloudy
3:08 PM 33.8 °F 28.6 °F 21.2 °F 60% 30.05 in 10.0 mi NW 5.8 mph - N/A   Scattered Clouds
3:53 PM 32.0 °F 27.5 °F 21.0 °F 64% 30.06 in 10.0 mi NW 4.6 mph - N/A   Clear
4:50 PM 32.0 °F - 21.2 °F 64% 30.06 in 10.0 mi Calm Calm - N/A   Mostly Cloudy
4:53 PM 30.9 °F - 21.0 °F 67% 30.07 in 10.0 mi Calm Calm - N/A   Mostly Cloudy
5:53 PM 30.9 °F 27.5 °F 21.0 °F 67% 30.07 in 10.0 mi Variable 3.5 mph - N/A   Mostly Cloudy
6:53 PM 30.0 °F 26.5 °F 21.0 °F 69% 30.07 in 10.0 mi NW 3.5 mph - N/A   Overcast
7:53 PM 30.0 °F 24.1 °F 21.0 °F 69% 30.07 in 10.0 mi North 5.8 mph - N/A   Scattered Clouds
8:53 PM 28.0 °F - 19.9 °F 72% 30.08 in 10.0 mi Calm Calm - N/A   Clear
9:53 PM 23.0 °F - 18.0 °F 81% 30.07 in 10.0 mi Calm Calm - N/A   Clear
10:53 PM 21.9 °F - 18.0 °F 85% 30.07 in 10.0 mi Calm Calm - N/A   Clear
11:53 PM 21.0 °F - 18.0 °F 88% 30.05 in 10.0 mi Calm Calm - N/A   Clear